FW0135 Weather Reports


Display with metric or nautical units.
time (UTC)temp
F
wind
direction
speed
MPH
gust
MPH
rain 1hr
in
rain 24hr
in
rain mn
in
humidity
%
barometer
mb
20260503032304 42 60 0.0 0.0 0.00 0.55 0.55 91 996.5
20260503031755 42 60 0.0 1.0 0.01 0.55 0.55 91 996.5
20260503031249 42 60 0.0 1.0 0.02 0.55 0.55 91 996.5
20260503030743 43 60 0.0 1.0 0.03 0.55 0.55 91 996.5
20260503030238 43 60 0.0 1.0 0.03 0.55 0.55 91 996.6
20260503025732 43 60 0.0 0.0 0.03 0.55 0.55 91 996.6
20260503025225 44 60 0.0 1.0 0.03 0.55 0.55 91 996.6
20260503024719 44 60 0.0 1.0 0.03 0.55 0.55 91 996.7
20260503024214 44 60 0.0 2.0 0.03 0.55 0.55 91 996.7
20260503023708 45 60 1.0 2.0 0.03 0.55 0.55 91 996.7
20260503023202 45 72 1.0 3.0 0.03 0.55 0.55 92 996.5
20260503022156 46 0 0.0 0.0 0.03 0.55 0.55 93 996.7
20260503021653 46 0 0.0 0.0 0.02 0.54 0.54 93 996.6
20260503020652 46 0 0.0 0.0 0.00 0.52 0.52 93 996.6
20260503020152 46 0 0.0 0.0 0.00 0.52 0.52 92 996.7
20260503015650 46 0 0.0 0.0 0.00 0.52 0.52 92 996.6
20260503015146 46 0 0.0 0.0 0.00 0.52 0.52 92 996.5
20260503014143 46 0 0.0 0.0 0.00 0.52 0.52 92 996.6
20260503013642 46 0 0.0 0.0 0.00 0.52 0.52 92 996.5
20260503013141 46 0 0.0 0.0 0.00 0.52 0.52 92 996.5
20260503012136 46 0 0.0 0.0 0.00 0.52 0.52 92 996.5
20260503011634 46 0 0.0 0.0 0.00 0.52 0.52 92 996.5
20260503011131 46 0 0.0 0.0 0.00 0.52 0.52 92 996.4
20260503010630 46 0 0.0 0.0 0.00 0.52 0.52 92 996.4
20260503010130 46 0 0.0 0.0 0.00 0.52 0.52 92 996.3
20260503005630 46 0 0.0 0.0 0.00 0.52 0.52 92 996.4
20260503004626 46 0 0.0 0.0 0.00 0.52 0.52 92 996.3
20260503004125 47 0 0.0 0.0 0.00 0.52 0.52 92 996.3
20260503003626 47 0 0.0 0.0 0.00 0.52 0.52 92 996.2
20260503003126 47 0 0.0 0.0 0.00 0.52 0.52 92 996.2
20260503002624 47 0 0.0 0.0 0.01 0.52 0.52 92 996.1
20260503002124 47 0 0.0 0.0 0.01 0.52 0.52 92 996.2
20260503001626 47 0 0.0 0.0 0.01 0.52 0.52 92 996.1
20260503001125 47 0 0.0 0.0 0.02 0.52 0.52 92 996.1
20260503000625 47 0 0.0 0.0 0.04 0.52 0.52 92 996.1
20260503000124 47 0 0.0 0.0 0.04 0.52 0.52 92 996.0
20260502235625 47 0 0.0 0.0 0.04 0.52 0.52 92 996.0
20260502235126 47 0 0.0 0.0 0.04 0.52 0.52 92 995.8
20260502234625 47 0 0.0 0.0 0.05 0.52 0.52 92 995.8
20260502234125 47 0 0.0 0.0 0.05 0.52 0.52 92 995.8
20260502233625 47 0 0.0 0.0 0.05 0.52 0.52 92 995.8
20260502233124 47 0 0.0 0.0 0.05 0.52 0.52 92 996.0
20260502232624 47 0 0.0 0.0 0.04 0.51 0.51 92 996.0
20260502231112 48 0 0.0 0.0 0.03 0.50 0.50 92 996.0
20260502230607 48 0 0.0 0.0 0.01 0.48 0.48 92 996.0
20260502230101 48 0 0.0 0.0 0.01 0.48 0.48 92 996.0
20260502225555 48 0 0.0 0.0 0.02 0.48 0.48 92 995.8
20260502225048 48 0 0.0 0.0 0.03 0.48 0.48 92 995.8
20260502224543 48 0 0.0 0.0 0.03 0.47 0.47 92 995.8
20260502223531 48 0 0.0 0.0 0.03 0.47 0.47 91 995.6
20260502223025 48 0 0.0 0.0 0.04 0.47 0.47 91 995.7
20260502222519 48 0 0.0 0.0 0.04 0.47 0.47 91 995.6
20260502222013 48 0 0.0 0.0 0.04 0.47 0.47 91 995.5
20260502221507 48 0 0.0 0.0 0.05 0.47 0.47 91 995.5
20260502221001 48 0 0.0 0.0 0.06 0.47 0.47 91 995.6
20260502220455 48 0 0.0 0.0 0.08 0.47 0.47 91 995.6
20260502215949 48 0 0.0 0.0 0.09 0.47 0.47 91 995.6
20260502215443 48 0 0.0 0.0 0.09 0.46 0.46 91 995.6
20260502214937 48 0 0.0 0.0 0.08 0.45 0.45 91 995.7
20260502214431 48 0 0.0 0.0 0.08 0.44 0.44 91 995.7
20260502213924 48 0 0.0 0.0 0.08 0.44 0.44 91 995.6
20260502213418 48 0 0.0 0.0 0.07 0.43 0.43 91 995.6
20260502212913 48 0 0.0 0.0 0.07 0.43 0.43 91 995.6
20260502212407 48 0 0.0 0.0 0.07 0.43 0.43 91 995.5
20260502210849 49 0 0.0 0.0 0.04 0.40 0.41 91 995.6
20260502210343 49 0 0.0 0.0 0.04 0.39 0.39 91 995.6
20260502205837 49 0 0.0 0.0 0.03 0.38 0.38 90 995.6
20260502205331 49 0 0.0 0.0 0.03 0.37 0.37 90 995.7
20260502204825 49 0 0.0 0.0 0.02 0.36 0.36 90 995.7
20260502204319 49 0 0.0 0.0 0.04 0.36 0.36 90 995.6
20260502203812 49 0 0.0 0.0 0.04 0.36 0.36 90 995.5
20260502203308 49 0 0.0 0.0 0.05 0.36 0.36 90 995.5
20260502202800 49 0 0.0 0.0 0.06 0.36 0.36 90 995.6
20260502202254 50 0 0.0 0.0 0.06 0.36 0.36 91 995.6
20260502201749 50 0 0.0 0.0 0.06 0.36 0.36 91 995.6
20260502200230 49 0 0.0 0.0 0.05 0.35 0.35 90 995.7
20260502195725 49 0 0.0 0.0 0.04 0.34 0.35 90 995.7
20260502195218 49 0 0.0 0.0 0.04 0.34 0.34 90 995.7
20260502194712 49 0 0.0 0.0 0.03 0.33 0.33 90 995.8
20260502194207 49 0 0.0 0.0 0.02 0.32 0.32 90 995.9
20260502193701 49 0 0.0 0.0 0.01 0.31 0.32 90 995.9
20260502193155 49 0 0.0 0.0 0.01 0.31 0.31 90 996.0
20260502192649 49 0 0.0 0.0 0.00 0.30 0.30 90 996.0
20260502192142 50 0 0.0 0.0 0.00 0.30 0.30 89 995.9
20260502191636 50 0 0.0 0.0 0.00 0.30 0.30 90 995.9
20260502191130 50 0 0.0 0.0 0.00 0.30 0.30 89 995.8
20260502185613 50 0 0.0 0.0 0.00 0.30 0.30 90 995.9
20260502185107 50 0 0.0 0.0 0.01 0.30 0.30 90 996.0
20260502184607 50 0 0.0 0.0 0.01 0.30 0.30 90 996.0
20260502183106 50 0 0.0 0.0 0.02 0.30 0.30 91 996.2
20260502181558 49 0 0.0 0.0 0.04 0.30 0.30 90 996.4
20260502180557 49 0 0.0 0.0 0.06 0.30 0.30 91 996.3
20260502163540 50 0 0.0 0.0 0.00 0.23 0.23 89 996.5
20260502163039 50 0 0.0 0.0 0.00 0.23 0.23 92 996.5
20260502162539 49 5 0.0 0.0 0.00 0.23 0.23 91 996.5
20260502162039 48 5 0.0 0.0 0.00 0.23 0.23 91 996.6
20260502161540 48 5 0.0 0.0 0.00 0.23 0.23 91 996.7
20260502151959 46 5 0.0 0.0 0.00 0.23 0.23 90 997.2
20260502151453 46 5 0.0 0.0 0.00 0.23 0.23 90 997.3
20260502150947 46 5 0.0 0.0 0.00 0.23 0.23 90 997.3
20260502150441 46 5 0.0 0.0 0.00 0.23 0.23 90 997.3
20260502130723 44 5 0.0 0.0 0.02 0.23 0.23 92 997.7
20260502130217 44 5 0.0 0.0 0.02 0.22 0.23 92 997.7
20260502123647 44 5 0.0 0.0 0.04 0.22 0.22 92 997.7
20260502123141 44 5 0.0 0.0 0.04 0.22 0.22 92 997.8
20260502122635 44 5 0.0 0.0 0.04 0.22 0.22 92 997.9
20260502122128 44 5 0.0 0.0 0.04 0.22 0.22 92 998.0
20260502121623 44 5 0.0 0.0 0.04 0.22 0.22 92 997.8
20260502121117 44 5 0.0 0.0 0.03 0.21 0.21 92 997.8
20260502120610 44 5 0.0 0.0 0.03 0.21 0.21 92 997.8
20260502120105 43 5 0.0 0.0 0.02 0.20 0.20 92 997.9
20260502114041 43 5 0.0 0.0 0.00 0.18 0.18 92 997.9
20260502113534 43 5 0.0 0.0 0.01 0.18 0.18 92 997.9
20260502112523 43 5 0.0 0.0 0.02 0.18 0.18 92 997.7
20260502112017 43 5 0.0 0.0 0.02 0.18 0.18 92 997.6
20260502111012 43 5 0.0 0.0 0.03 0.18 0.18 92 997.3
20260502110510 43 5 0.0 0.0 0.03 0.18 0.18 92 997.3
20260502110011 43 5 0.0 0.0 0.04 0.18 0.18 92 997.4
20260502105511 43 5 0.0 0.0 0.04 0.18 0.18 92 997.2
20260502105008 43 5 0.0 0.0 0.05 0.18 0.18 92 997.3
20260502104009 43 5 0.0 0.0 0.07 0.18 0.18 92 997.4
20260502103510 42 5 0.0 0.0 0.07 0.17 0.17 91 997.5
20260502103009 42 5 0.0 0.0 0.07 0.17 0.17 91 997.6
20260502102507 42 5 0.0 0.0 0.07 0.16 0.16 91 997.6
20260502102007 42 5 0.0 0.0 0.08 0.16 0.16 91 997.6
20260502101505 42 5 0.0 0.0 0.08 0.15 0.15 91 997.6
20260502101006 42 5 0.0 0.0 0.08 0.15 0.15 91 997.5
20260502100506 42 5 0.0 0.0 0.09 0.15 0.15 91 997.5
20260502091001 42 5 0.0 0.0 0.05 0.06 0.06 91 997.2
20260502090502 42 5 0.0 0.0 0.05 0.06 0.06 91 997.2
20260502071330 42 5 0.0 0.0 0.00 0.00 0.00 88 997.4
20260502070318 42 5 0.0 0.0 0.00 0.00 0.00 88 997.5
20260502065813 42 5 0.0 0.0 0.00 0.00 0.00 88 997.5
20260502065306 42 5 0.0 0.0 0.00 0.00 0.00 88 997.5
20260502064255 42 5 0.0 2.0 0.00 0.00 0.00 87 997.8
20260502063748 42 5 0.0 2.0 0.00 0.00 0.00 87 997.9
20260502063242 42 5 0.0 2.0 0.00 0.00 0.00 87 997.9
20260502062737 42 5 0.0 1.0 0.00 0.00 0.00 87 997.9
20260502061725 42 5 0.0 1.0 0.00 0.00 0.00 87 997.9
20260502061225 42 5 1.0 2.0 0.00 0.00 0.00 86 997.8
20260502060203 42 321 1.0 2.0 0.00 0.00 0.00 85 998.0
20260502055657 42 321 1.0 3.0 0.00 0.00 0.00 85 998.1
20260502055150 42 321 1.0 5.0 0.00 0.00 0.00 84 998.0
20260502054644 42 342 0.0 5.0 0.00 0.00 0.00 82 997.8
20260502054139 42 49 0.0 2.0 0.00 0.00 0.00 82 997.9
20260502053632 42 49 0.0 2.0 0.00 0.00 0.00 82 997.7
20260502053127 42 49 0.0 1.0 0.00 0.00 0.00 82 997.5
20260502052621 42 49 0.0 1.0 0.00 0.00 0.00 82 997.3
20260502052115 42 49 0.0 2.0 0.00 0.00 0.00 82 997.3
20260502051609 42 49 1.0 2.0 0.00 0.00 0.00 82 997.3
20260502051102 42 49 0.0 2.0 0.00 0.00 0.00 83 997.2
20260502045039 42 49 0.0 0.0 0.00 0.00 0.00 82 997.2
20260502044026 41 49 0.0 0.0 0.00 0.00 0.00 82 997.3
20260502043014 41 49 0.0 0.0 0.00 0.00 0.00 81 997.2
20260502042509 41 49 0.0 0.0 0.00 0.00 0.00 81 997.2
20260502042003 41 49 0.0 0.0 0.00 0.00 0.00 81 997.1
20260502040950 41 49 0.0 0.0 0.00 0.01 0.00 81 996.9
20260502040445 41 49 0.0 0.0 0.00 0.01 0.00 81 996.9
20260502035939 41 49 0.0 0.0 0.00 0.01 0.01 81 996.9
20260502035433 40 49 0.0 0.0 0.00 0.01 0.01 81 996.9
20260502034928 40 49 0.0 0.0 0.00 0.01 0.01 80 997.0
20260502033915 40 49 0.0 0.0 0.00 0.01 0.01 80 997.0
20260502033414 40 49 0.0 0.0 0.00 0.01 0.01 80 997.0
20260502032900 41 49 0.0 0.0 0.00 0.01 0.01 79 996.9